SAC C

Satellite information

Favourite Embed

Satellite Type and Status

PAYLOADIN ORBIT

Key statistics

Satellite SAC C at a glance.

Uptime

9054

Days in orbit

Revolutions

≈ 14.6

Per day

Orbit

SSO

Sun Synchronous Orbit

Inclination

98.5

Latest

Satellite identification and parameters

Extended collection of information and parameters for SAC C.

Object identification

Identified? True

Debris? False

Object name: SAC C

International designator: 2000-075B

Object number (NORAD): 26620

Object ID (CCSDS): 26620

Country: ARGENTINA (ARGN)

Current information (Y/N): Y

RCS size: LARGE

Orbital parameters

Period: 98.467 minutes

Inclination: 98.4968 deg

SMA: 7063.525 km

Apoapsis: 686.325 km

Periapsis: 684.456 km

RAAN: 245.7407 deg

Eccentricy: 0.00013229

Argument of periapsis: 103.1112 deg

Mean anomaly: 257.0236 deg

Mean motion: 14.62414604 rev/day

Mean motion (dot): 0.00001257 rev/day2

B* drag term: 0.00025843216 1/REarth

Two-line elements (TLE)

Creation date: Sept. 4, 2025, 10:13 a.m.

Reference frame: TEME

Reference center: EARTH

Epoch: Sept. 4, 2025, 6:32 a.m. UTC

TLE line 0: 0 SAC C

TLE line 1: 1 26620U 00075B 25247.27289460 .00001257 00000-0 25843-3 0 9996

TLE line 2: 2 26620 98.4968 245.7407 0001323 103.1112 257.0236 14.62414604319021

Live tracking on map

Real-time ground track for satellite SAC C.

In-orbit conjunctions

A list of the most updated potential collisions computed for object SAC C.

Target Orbit TCA Probability of collision Miss distance Type
DELTA 1 DEB SSO 2025-07-16 19:33:23 0.0003046443 697.0 (m) DEBRIS
IRIDIUM 33 DEB LEO 2025-04-02 09:47:32 0.0001017533 906.0 (m) DEBRIS
CZ-2C DEB SSO 2025-02-11 22:13:18 0.0001939805 764.0 (m) DEBRIS
SL-18 DEB LEO 2025-01-24 17:05:40 0.0001048093 389.0 (m) DEBRIS
SL-8 DEB LEO 2024-09-25 20:17:21 0.0007465795 597.0 (m) DEBRIS

Associated space launch

EO 1 and SAS C are American and Argentinian Earth-imaging satellites.

SAC C was lifted into orbit during the mission ‘Delta II | EO 1 & SAC C’, on board a Delta II space rocket.

The launch took place on Nov. 21, 2000, 6:24 p.m. from Space Launch Complex 2W.

For more information about the launch, click the button.

Launch to space Delta II | EO 1 & SAC C
Delta II | EO 1 & SAC C

Agency: N/A

Status: Launch Successful

Launch date: Nov. 21, 2000, 6:24 p.m. UTC

Rocket: Delta II

Launch pad: Space Launch Complex 2W

Location: Vandenberg SFB, CA, USA

...

Latest news about this satellite

There are no fresh news available about this satellite. Check back as we update our databases every day.


Newsletter sign-up

Weekly statistics, charts and insights to help you stay on top of the space industry.